User: anonymous   Login
Location: Lecco
(45.8566°N, 9.3977°E)
Time: 05:46:10
(UTC+02:00)
Language:

A-11 Canister half - Orbit

View from above orbital plane
View from above orbital plane
View from above satellite
View from above satellite

Ground track
Ground track

The orbit data is extracted from the following two-line orbital elements,

1    53U 60009E   20220.48902196 -.00000021 +00000-0 +62030-3 0  9996
2    53 047.2767 101.6025 0097258 232.5709 126.6198 12.17241988674785
Epoch (UTC): 07 August 2020 11:44:11
Eccentricity: 0.0097258
inclination: 47.2767°
perigee height: 1527 km
apogee height: 1682 km
right ascension of ascending node: 101.6025°
argument of perigee: 232.5709°
revolutions per day: 12.17241988
mean anomaly at epoch: 126.6198°
orbit number at epoch: 67478

The dashed part of the orbit path shows where the satellite is in the earth's shadow,  

DLR